Regional Weather Roundup
Issued by NWS

Home | Current Version | Previous Version | Text Only | Print | Product List | Glossary Off
Versions: 1 2 3 4 5 6 7 8 9 10 11 12 13 14 15 16 17 18 19 20 21 22 23 24 25 26 27 28 29 30 31 32 33 34 35 36 37 38 39 40 41 42 43 44 45 46 47 48 49 50

000
ASUS43 KBIS 192010
RWRND

NORTH DAKOTA REGIONAL WEATHER ROUNDUP
NATIONAL WEATHER SERVICE BISMARCK ND
300 PM CDT FRI SEP 19 2014

NOTE: "FAIR" INDICATES FEW OR NO CLOUDS BELOW 12,000 FEET WITH NO
SIGNIFICANT WEATHER AND/OR OBSTRUCTIONS TO VISIBILITY.


NDZ001>003-009>011-017-192100-
NORTHWEST NORTH DAKOTA

CITY           SKY/WX    TMP DP  RH WIND       PRES   REMARKS
WILLISTON      MOSUNNY   79  49  34 NW18G33   29.68R
MINOT          LGT RAIN  81  48  31 W25G36    29.57R
MINOT AFB      SUNNY     79  50  36 W18       29.54F
$$

NDZ018>021-031>035-040>046-192100-
SOUTHWEST NORTH DAKOTA

CITY           SKY/WX    TMP DP  RH WIND       PRES   REMARKS
BISMARCK       SUNNY     85  47  26 W21G29    29.65S
DICKINSON      MOSUNNY   77  48  35 W26G35    29.72S
GARRISON         N/A     82  48  30 W22G33    29.60F
HETTINGER ARPT SUNNY     80  46  30 W25G33    29.77S
$$

NDZ004>008-012>016-024-026-027-054-192100-
NORTHEAST NORTH DAKOTA

CITY           SKY/WX    TMP DP  RH WIND       PRES   REMARKS
GRAND FORKS    MOSUNNY   79  67  66 S13       29.51F
GRND FRKS AFB  MOSUNNY   82  63  51 SW16      29.52S
DEVILS LAKE    SUNNY     81  57  44 W15       29.52F
$$

NDZ022-023-025-028>030-036>039-047>053-192100-
SOUTHEAST NORTH DAKOTA

CITY           SKY/WX    TMP DP  RH WIND       PRES   REMARKS
FARGO          PTSUNNY   77  65  66 S15       29.57F
JAMESTOWN      SUNNY     80  56  43 W20       29.58S
$$



USA.gov is the U.S. government's official web portal to all federal, state and local government web resources and services.